WILDBLUE-1

Last updated on Fri Dec 19 2025 00:02:49 GMT+0000 (Coordinated Universal Time)

1 29643U 06054A 25352.60326825 -.00000026 00000+0 00000+0 0 9995 2 29643 2.3368 82.8278 0001103 206.4357 264.1925 1.00272475 51985
UTC large
Height (km)
Speed (km/s)
/
Latitude / Longitude
Inclination (degrees)
Orbital Period (minutes)
Azimuth
Elevation
Range (km)
Doppler Factor

Next 0 passes for location: London (51.5072 / 0.1276)

Sorry there are no passes over London.